Date,TemperatureHighF,TemperatureAvgF,TemperatureLowF,DewpointHighF,DewpointAvgF,DewpointLowF,HumidityHigh,HumidityAvg,HumidityLow,PressureMaxIn,PressureMinIn,WindSpeedMaxMPH,WindSpeedAvgMPH,GustSpeedMaxMPH,PrecipitationSumIn
2012-1-1,34,28,21,13,-2,-100,48,28,14,0.00,40.00,41,20,57,0.00
2012-1-2,47,39,20,17,13,-100,69,36,23,0.00,40.00,28,12,43,0.00
2012-1-3,44,38,34,14,10,-100,42,32,22,0.00,40.00,34,19,50,0.00
2012-1-4,46,40,34,12,5,-100,35,25,18,0.00,40.00,36,13,50,0.00
2012-1-5,48,43,39,19,11,-100,38,29,21,0.00,40.00,37,4,51,0.00
2012-1-6,39,33,24,18,10,-5,53,39,17,0.00,40.00,39,22,58,0.00
2012-1-7,32,25,16,17,9,-3,75,54,22,0.00,40.00,15,7,22,0.00
2012-1-8,30,24,16,15,5,-3,64,46,26,0.00,40.00,26,14,37,0.00
2012-1-9,42,29,19,22,17,11,77,62,43,0.00,40.00,18,4,26,0.00
2012-1-10,45,35,23,24,10,-4,90,40,12,0.00,40.00,32,21,46,0.13
2012-1-11,27,9,4,22,4,-11,94,79,46,0.00,40.00,30,18,40,0.41
2012-1-12,22,15,8,3,-3,-100,55,45,33,0.00,40.00,34,18,44,0.01
2012-1-13,28,24,18,5,0,-5,41,35,30,0.00,40.00,39,32,54,0.00
2012-1-14,41,34,26,9,4,-100,37,29,23,0.00,40.00,40,24,60,0.00
2012-1-15,44,37,35,5,-3,-100,28,18,12,0.00,40.00,38,15,57,0.00
2012-1-16,35,21,4,22,9,-100,95,64,20,0.00,40.00,39,16,59,0.40
2012-1-17,13,7,2,-3,-7,-11,74,53,37,0.00,40.00,37,25,51,0.02
2012-1-18,32,23,12,20,5,-100,65,47,39,0.00,40.00,49,21,72,0.04
2012-1-19,39,35,31,30,26,21,83,71,61,0.00,40.00,40,26,57,0.08
2012-1-20,34,32,31,28,24,19,81,71,54,0.00,40.00,37,23,57,0.06
2012-1-21,46,38,32,30,23,17,82,57,41,0.00,40.00,50,34,67,0.05
2012-1-22,32,21,17,26,15,7,93,78,56,0.00,40.00,47,32,63,1.19
2012-1-23,35,27,21,16,11,6,72,50,35,0.00,40.00,42,20,60,0.03
2012-1-24,24,20,17,22,12,-100,96,77,30,0.00,40.00,31,-2,42,0.39
2012-1-25,39,30,21,23,12,-100,73,51,29,0.00,40.00,47,12,62,0.02
2012-1-26,39,30,27,28,15,-100,90,62,31,0.00,40.00,35,-17,50,0.10
2012-1-27,27,17,11,22,10,-100,94,74,53,0.00,40.00,35,13,55,0.66
2012-1-28,25,18,11,1,-6,-100,62,37,25,0.00,40.00,50,7,70,0.01
2012-1-29,38,30,24,17,7,-100,51,40,31,0.00,40.00,45,-4,65,0.00
2012-1-30,38,32,26,21,8,-100,71,42,28,0.00,40.00,35,-24,52,0.00
2012-1-31,33,26,21,14,4,-100,69,45,29,0.00,40.00,34,-20,47,0.00
2012-2-1,39,29,22,13,-2,-100,67,32,12,0.00,40.00,36,-13,50,0.00
2012-2-2,32,26,20,22,11,-100,97,59,24,0.00,40.00,20,-6,26,0.51
2012-2-3,20,17,13,19,13,-100,97,93,94,0.00,40.00,16,-22,22,0.77
2012-2-4,20,15,10,14,6,-100,94,76,59,0.00,40.00,16,-20,19,0.01
2012-2-5,33,19,12,13,4,-100,79,58,39,0.00,40.00,9,-39,11,0.00
2012-2-6,23,18,14,15,10,5,94,70,52,0.00,40.00,12,6,15,0.03
2012-2-7,23,12,6,13,8,3,95,82,48,0.00,40.00,18,4,30,0.05
2012-2-8,30,25,16,22,14,-100,87,64,39,0.00,40.00,36,17,51,0.08
2012-2-9,27,24,20,20,16,10,87,71,57,0.00,40.00,32,21,45,0.06
2012-2-10,28,22,11,25,16,-100,98,79,66,0.00,40.00,34,10,47,0.34
2012-2-11,31,20,11,27,18,10,97,92,69,0.00,40.00,10,3,14,0.15
2012-2-12,38,29,25,30,22,-100,99,78,55,0.00,40.00,14,-3,17,0.10
2012-2-13,30,24,21,24,18,-100,97,81,65,0.00,40.00,22,-1,30,0.20
2012-2-14,32,23,19,23,17,-100,94,79,67,0.00,40.00,24,5,34,0.10
2012-2-15,26,19,15,17,10,-100,91,72,44,0.00,40.00,20,-12,27,0.00
2012-2-16,26,22,16,17,14,4,87,69,43,0.00,40.00,34,20,51,0.01
2012-2-17,26,22,15,17,10,0,84,62,31,0.00,40.00,35,20,48,0.02
2012-2-18,33,26,15,15,8,1,74,49,25,0.00,40.00,31,18,40,0.00
2012-2-19,31,24,16,22,13,6,96,67,43,0.00,40.00,16,5,20,0.79
2012-2-20,18,15,12,14,9,3,94,78,52,0.00,40.00,45,28,62,0.85
2012-2-21,30,23,16,26,18,-100,93,83,74,0.00,40.00,47,31,67,0.80
2012-2-22,35,33,30,28,26,23,87,76,61,0.00,40.00,54,44,78,0.07
2012-2-23,32,15,11,26,11,3,96,82,64,0.00,40.00,43,20,59,0.34
2012-2-24,31,19,11,13,9,3,87,68,45,0.00,40.00,42,30,54,0.10
2012-2-25,39,28,13,23,10,-3,93,49,28,0.00,40.00,44,30,62,0.36
2012-2-26,18,13,9,4,0,-10,73,56,32,0.00,40.00,35,22,51,0.00
2012-2-27,40,28,9,20,8,-16,75,43,20,0.00,40.00,27,10,42,0.00
2012-2-28,35,25,16,27,19,10,98,77,49,0.00,40.00,37,20,54,0.64
2012-2-29,32,24,15,20,11,-100,82,58,44,0.00,40.00,44,23,57,0.25
2012-3-1,21,17,13,18,4,-100,93,61,38,0.00,40.00,29,-2,39,0.00
2012-3-2,16,12,8,9,2,-100,84,66,53,0.00,40.00,36,4,56,0.06
2012-3-3,27,18,10,21,11,-100,86,77,67,0.00,40.00,50,24,71,0.27
2012-3-4,37,30,26,22,12,-100,84,57,32,0.00,40.00,52,-31,70,0.04
2012-3-5,45,39,35,18,12,-100,41,33,22,0.00,40.00,42,25,57,0.00
2012-3-6,50,42,26,26,4,-100,98,23,12,0.00,40.00,44,-17,56,0.00
2012-3-7,30,21,17,25,16,-100,99,89,69,0.00,40.00,19,-14,23,0.04
2012-3-8,36,26,13,14,4,-100,91,44,23,0.00,40.00,15,-6,19,0.00
2012-3-9,48,36,23,16,6,-5,43,28,18,0.00,40.00,14,6,22,0.00
2012-3-10,52,41,32,19,11,-100,45,29,20,0.00,40.00,14,6,19,0.00
2012-3-11,49,42,34,14,7,-7,37,24,11,0.00,40.00,28,17,37,0.00
2012-3-12,49,42,36,16,14,11,42,32,22,0.00,40.00,30,18,45,0.00
2012-3-13,52,45,38,13,10,4,32,24,14,0.00,40.00,32,19,52,0.00
2012-3-14,53,45,36,24,12,6,55,26,18,0.00,40.00,21,12,31,0.00
2012-3-15,54,45,37,25,22,17,58,42,24,0.00,40.00,19,12,29,0.00
2012-3-16,56,48,42,21,17,15,41,29,20,0.00,40.00,33,14,44,0.00
2012-3-17,59,48,39,17,13,7,40,25,14,0.00,40.00,17,10,29,0.00
2012-3-18,54,42,28,29,16,9,90,38,16,0.00,40.00,38,15,54,0.01
2012-3-19,30,24,20,19,11,-100,87,59,42,0.00,40.00,32,15,48,0.07
2012-3-20,36,27,17,14,7,-100,74,46,27,0.00,40.00,30,21,41,0.00
2012-3-21,47,38,29,23,18,8,66,46,32,0.00,40.00,35,19,47,0.00
2012-3-22,53,44,34,20,15,-100,53,33,17,0.00,40.00,22,3,28,0.00
2012-3-23,65,52,39,19,14,10,34,23,12,0.00,40.00,18,9,26,0.00
2012-3-24,60,49,42,29,20,13,51,32,17,0.00,40.00,21,11,27,0.00
2012-3-25,62,53,40,27,15,9,45,23,12,0.00,40.00,18,9,29,0.00
2012-3-26,60,47,31,23,14,1,69,29,10,0.00,40.00,34,19,56,0.00
2012-3-27,49,38,28,18,14,9,66,39,20,0.00,40.00,42,22,58,0.00
2012-3-28,59,48,35,25,15,7,54,28,14,0.00,40.00,18,10,32,0.00
2012-3-29,50,41,31,31,21,7,88,51,21,0.00,40.00,31,18,45,0.10
2012-3-30,57,48,39,29,24,19,64,41,24,0.00,40.00,37,22,50,0.00
2012-3-31,65,55,44,29,22,12,53,30,13,0.00,40.00,23,13,35,0.00
2012-4-1,64,54,37,24,15,8,55,24,11,0.00,40.00,23,11,33,0.00
2012-4-2,37,29,26,27,25,21,99,87,55,0.00,40.00,21,9,27,0.17
2012-4-3,36,29,23,27,22,15,92,76,60,0.00,40.00,21,10,29,0.01
2012-4-4,59,44,27,28,21,-100,89,46,17,0.00,40.00,16,-1,24,0.00
2012-4-5,60,51,40,22,13,1,41,24,10,0.00,40.00,24,10,35,0.00
2012-4-6,52,41,24,21,9,-5,69,30,10,0.00,40.00,29,19,45,0.06
2012-4-7,46,33,20,7,0,-7,56,28,11,0.00,40.00,39,21,55,0.00
2012-4-8,56,51,40,4,-1,-5,20,12,9,0.00,40.00,20,14,35,0.00
2012-4-9,61,49,35,21,4,-7,45,18,8,0.00,40.00,19,12,31,0.00
2012-4-10,65,53,38,33,13,4,55,23,10,0.00,40.00,15,8,29,0.00
2012-4-11,67,52,36,42,27,14,85,45,14,0.00,40.00,37,12,51,0.16
2012-4-12,48,39,31,36,26,17,98,59,39,0.00,40.00,30,14,45,0.14
2012-4-13,44,35,29,31,22,12,100,63,27,0.00,40.00,28,16,43,0.05
2012-4-14,40,32,28,32,28,-100,100,90,57,0.00,40.00,20,7,28,0.31
2012-4-15,32,28,26,29,26,25,99,93,81,0.00,40.00,24,12,32,0.50
2012-4-16,44,34,26,27,21,15,98,61,33,0.00,40.00,29,18,40,0.00
2012-4-17,49,41,36,35,25,18,88,53,35,0.00,40.00,30,19,42,0.01
2012-4-18,53,42,36,36,28,22,91,60,31,0.00,40.00,27,15,40,0.24
2012-4-19,46,39,33,32,27,18,90,64,34,0.00,40.00,28,20,47,0.02
2012-4-20,56,44,31,32,29,25,97,59,31,0.00,40.00,30,20,41,0.01
2012-4-21,62,51,42,34,26,14,68,41,17,0.00,40.00,32,21,49,0.00
2012-4-22,64,53,36,32,25,18,73,36,17,0.00,40.00,17,9,27,0.00
2012-4-23,69,59,49,30,22,-100,40,25,14,0.00,40.00,16,-6,27,0.00
2012-4-24,70,60,51,29,26,19,39,28,14,0.00,40.00,31,13,45,0.00
2012-4-25,64,56,48,37,28,-100,56,35,20,0.00,40.00,25,5,35,0.00
2012-4-26,65,54,46,42,33,-100,85,48,26,0.00,40.00,26,5,44,0.20
2012-4-27,48,37,27,43,21,2,97,56,28,0.00,40.00,43,27,63,0.03
2012-4-28,43,32,24,24,11,-100,79,45,27,0.00,40.00,34,22,47,0.00
2012-4-29,47,37,25,24,17,12,87,48,27,0.00,40.00,21,10,32,0.00
2012-4-30,59,49,37,20,17,10,48,30,15,0.00,40.00,32,16,45,0.00
2012-5-1,53,46,40,36,28,-100,82,52,26,0.00,40.00,28,11,43,0.04
2012-5-2,55,46,38,41,36,30,93,70,51,0.00,40.00,32,16,45,0.38
2012-5-3,65,54,40,38,30,21,68,42,19,0.00,40.00,20,9,32,0.00
2012-5-4,67,56,43,37,26,19,67,34,17,0.00,40.00,18,10,30,0.00
2012-5-5,60,52,37,29,18,-100,40,27,18,0.00,40.00,28,15,38,0.00
2012-5-6,50,38,29,31,18,6,74,44,26,0.00,40.00,17,8,34,0.00
2012-5-7,43,35,28,31,27,-100,98,76,52,0.00,40.00,23,6,30,0.00
2012-5-8,56,44,32,23,18,14,62,36,20,0.00,40.00,11,8,19,0.00
2012-5-9,65,55,42,19,14,10,34,20,13,0.00,40.00,19,13,30,0.00
2012-5-10,69,58,40,34,18,-100,77,23,12,0.00,40.00,24,7,34,0.00
2012-5-11,47,37,30,33,26,16,86,64,42,0.00,40.00,29,14,37,0.00
2012-5-12,55,43,34,35,20,-100,75,43,22,0.00,40.00,21,9,32,0.00
2012-5-13,59,47,32,31,21,7,87,40,17,0.00,40.00,13,7,18,0.00
2012-5-14,67,56,41,17,12,7,31,18,10,0.00,40.00,12,8,21,0.00
2012-5-15,70,60,44,23,16,9,31,19,11,0.00,40.00,21,10,28,0.00
2012-5-16,70,62,57,31,22,15,36,22,14,0.00,40.00,22,15,41,0.00
2012-5-17,68,60,53,32,28,22,39,30,21,0.00,40.00,22,14,37,0.00
2012-5-18,67,54,41,39,30,-100,83,44,18,0.00,40.00,29,5,38,0.00
2012-5-19,49,40,33,40,33,-100,99,81,55,0.00,40.00,10,-3,14,0.34
2012-5-20,63,51,40,33,25,-100,71,41,18,0.00,40.00,19,-5,27,0.00
2012-5-21,71,60,49,28,23,-100,38,25,16,0.00,40.00,21,-1,29,0.00
2012-5-22,74,66,56,26,20,15,31,18,12,0.00,40.00,33,19,54,0.00
2012-5-23,56,44,35,37,30,-100,96,60,31,0.00,40.00,25,10,40,0.18
2012-5-24,48,40,32,32,22,-100,100,54,27,0.00,40.00,26,8,39,0.04
2012-5-25,57,47,37,42,37,20,94,67,41,0.00,40.00,32,22,44,0.00
2012-5-26,74,58,41,50,32,-100,87,42,11,0.00,40.00,36,8,52,0.00
2012-5-27,49,41,35,33,18,-100,90,43,23,0.00,40.00,32,4,46,0.33
2012-5-28,54,43,36,26,19,-100,66,42,24,0.00,40.00,42,-2,60,0.00
2012-5-29,64,51,39,26,22,-100,52,33,18,0.00,40.00,21,5,30,0.00
2012-5-30,65,55,47,38,24,-100,66,34,16,0.00,40.00,34,3,46,0.00
2012-5-31,65,53,40,38,32,-100,80,49,26,0.00,40.00,19,0,28,0.00
2012-6-1,70,60,53,38,34,-100,53,38,24,0.00,40.00,25,10,37,0.00
2012-6-2,73,60,45,44,35,-100,75,42,23,0.00,40.00,26,2,39,0.08
2012-6-3,76,66,53,38,31,-100,48,28,17,0.00,40.00,22,4,32,0.00
2012-6-4,80,69,60,44,29,-100,55,25,12,0.00,40.00,17,1,37,0.00
2012-6-5,77,66,57,42,34,-100,49,31,14,0.00,40.00,26,6,35,0.00
2012-6-6,68,54,41,46,24,-100,79,35,20,0.00,40.00,30,5,42,0.00
2012-6-7,70,59,44,48,35,18,94,50,15,0.00,40.00,21,10,33,0.00
2012-6-8,79,67,53,46,24,16,77,23,11,0.00,40.00,19,12,30,0.00
2012-6-9,77,68,47,29,20,-100,42,17,11,0.00,40.00,34,14,47,0.00
2012-6-10,55,45,33,26,16,10,55,34,18,0.00,40.00,34,23,45,0.00
2012-6-11,65,51,39,27,20,-100,57,33,13,0.00,40.00,22,0,32,0.00
2012-6-12,67,59,47,22,17,7,36,20,14,0.00,40.00,24,13,37,0.00
2012-6-13,78,66,53,27,18,-100,27,17,9,0.00,40.00,24,6,43,0.00
2012-6-14,75,63,55,39,28,-100,51,29,14,0.00,40.00,23,-2,40,0.00
2012-6-15,73,63,50,41,34,28,70,36,20,0.00,40.00,24,10,34,0.00
2012-6-16,73,59,47,43,34,-100,81,46,14,0.00,40.00,19,9,30,0.00
2012-6-17,79,69,58,26,19,-100,24,16,9,0.00,40.00,37,16,52,0.00
2012-6-18,81,72,65,31,20,-100,22,15,10,0.00,40.00,25,10,39,0.00
2012-6-19,77,66,55,30,22,8,33,19,11,0.00,40.00,21,14,34,0.00
2012-6-20,62,54,45,27,14,-100,41,21,9,0.00,40.00,22,4,30,0.00
2012-6-21,79,63,44,32,24,11,60,27,9,0.00,40.00,21,10,30,0.00
2012-6-22,83,74,58,25,16,8,18,11,7,0.00,40.00,23,13,35,0.00
2012-6-23,85,75,62,19,15,11,16,11,6,0.00,40.00,22,14,39,0.00
2012-6-24,85,76,67,37,25,16,27,16,10,0.00,40.00,26,11,42,0.00
2012-6-25,84,75,64,44,34,-100,38,23,13,0.00,40.00,21,3,54,0.00
2012-6-26,83,76,67,39,33,29,26,21,16,0.00,40.00,24,15,37,0.00
2012-6-27,81,72,62,41,31,-100,36,24,12,0.00,40.00,19,-2,32,0.00
2012-6-28,83,73,60,33,23,11,20,15,12,0.00,40.00,16,11,27,0.00
2012-6-29,84,74,64,35,27,-100,28,19,11,0.00,40.00,20,5,33,0.00
2012-6-30,83,74,65,35,26,-100,27,18,11,0.00,40.00,17,2,26,0.00
2012-7-1,86,75,66,40,26,-100,37,18,8,0.00,40.00,22,3,29,0.00
2012-7-2,81,72,66,49,35,26,53,26,16,0.00,40.00,24,11,34,0.00
2012-7-3,83,74,60,39,34,26,46,24,14,0.00,40.00,24,9,34,0.00
2012-7-4,83,72,64,48,30,-100,55,23,13,0.00,40.00,22,-6,49,0.00
2012-7-5,78,66,56,56,50,41,87,58,32,0.00,40.00,26,10,37,0.41
2012-7-6,70,61,56,55,49,-100,94,69,44,0.00,40.00,21,2,29,0.04
2012-7-7,63,57,54,56,52,-100,96,84,65,0.00,40.00,14,2,21,0.08
2012-7-8,70,60,50,54,50,38,95,72,32,0.00,40.00,12,7,21,0.00
2012-7-9,76,63,51,54,46,39,95,58,27,0.00,40.00,20,7,26,0.01
2012-7-10,79,65,53,53,39,-100,72,43,17,0.00,40.00,14,-17,21,0.07
2012-7-11,83,70,56,50,38,-100,69,35,15,0.00,40.00,18,-4,31,0.00
2012-7-13,81,75,69,41,35,27,34,24,15,0.00,40.00,23,12,35,0.00
2012-7-14,75,68,61,53,41,-100,71,39,28,0.00,40.00,26,2,34,0.00
2012-7-15,77,67,61,54,44,39,76,44,28,0.00,40.00,32,11,43,0.00
2012-7-16,75,65,58,54,44,-100,81,49,32,0.00,40.00,24,4,34,0.00
2012-7-17,76,66,55,49,38,-100,69,38,20,0.00,40.00,19,3,30,0.00
2012-7-18,82,71,59,39,29,-100,36,21,13,0.00,40.00,18,4,23,0.00
2012-7-19,84,75,62,47,36,32,45,25,16,0.00,40.00,19,9,29,0.00
2012-7-20,83,72,64,53,41,-100,51,34,22,0.00,40.00,19,0,30,0.00
2012-7-21,81,68,62,53,44,-100,73,44,21,0.00,40.00,22,-6,29,0.09
2012-7-22,80,68,58,54,44,-100,78,45,25,0.00,40.00,30,4,39,0.00
2012-7-23,79,68,57,56,46,41,81,48,30,0.00,40.00,26,9,36,0.25
2012-7-24,73,64,57,54,48,44,79,56,37,0.00,40.00,23,10,31,0.00
2012-7-25,75,63,54,53,47,39,86,57,28,0.00,40.00,20,12,29,0.00
2012-7-26,77,66,53,51,37,-100,67,38,14,0.00,40.00,15,-1,20,0.00
2012-7-27,82,71,62,49,38,24,54,33,14,0.00,40.00,30,13,55,0.00
2012-7-28,81,70,54,44,40,31,68,36,18,0.00,40.00,22,11,32,0.00
2012-7-29,72,66,59,52,43,-100,67,45,32,0.00,40.00,21,1,31,0.00
2012-7-30,74,66,54,47,42,36,59,43,25,0.00,40.00,15,7,20,0.00
2012-7-31,80,70,61,47,40,-100,50,35,21,0.00,40.00,21,2,31,0.00
2012-8-1,78,69,65,45,39,-100,44,35,20,0.00,40.00,30,6,40,0.00
2012-8-2,80,72,64,36,28,20,33,21,12,0.00,40.00,21,14,34,0.00
2012-8-3,78,68,51,44,22,-100,76,20,10,0.00,40.00,26,2,42,0.00
2012-8-4,72,59,44,44,34,20,81,47,14,0.00,40.00,16,7,24,0.00
2012-8-5,83,71,50,41,27,18,61,23,10,0.00,40.00,17,7,26,0.00
2012-8-6,77,71,65,42,32,-100,42,25,13,0.00,40.00,23,-2,30,0.00
2012-8-7,79,70,58,44,32,18,54,28,10,0.00,40.00,17,9,26,0.00
2012-8-8,82,72,59,36,26,21,26,18,11,0.00,40.00,14,6,21,0.00
2012-8-9,85,72,64,42,29,-100,40,21,9,0.00,40.00,20,1,35,0.00
2012-8-10,81,70,61,49,36,-100,46,31,18,0.00,40.00,26,-5,37,0.00
2012-8-11,72,63,53,50,43,37,76,49,31,0.00,40.00,31,15,40,0.00
2012-8-12,75,63,51,37,29,-100,54,31,17,0.00,40.00,20,-9,26,0.00
2012-8-13,74,66,57,47,33,-100,66,32,14,0.00,40.00,24,7,37,0.01
2012-8-14,76,64,52,45,32,-100,66,36,13,0.00,40.00,21,-6,33,0.00
2012-8-15,77,64,50,45,31,-100,75,34,14,0.00,40.00,22,8,33,0.00
2012-8-16,68,56,45,46,41,-100,91,63,38,0.00,40.00,19,-5,27,0.00
2012-8-17,76,64,50,42,36,-100,69,37,20,0.00,40.00,17,1,24,0.00
2012-8-18,71,60,51,43,28,-100,58,31,17,0.00,40.00,11,-9,17,0.00
2012-8-19,74,50,47,32,3,-100,42,22,14,0.00,40.00,13,-171,20,0.00
2012-8-20,73,51,57,40,1,-100,42,21,19,0.00,40.00,22,-220,32,0.00
2012-8-21,76,66,55,40,33,28,44,30,18,0.00,40.00,14,6,16,0.00
2012-8-22,73,68,65,39,34,26,38,28,21,0.00,40.00,17,12,25,0.00
2012-8-23,76,65,55,46,39,-100,62,41,25,0.00,40.00,13,-9,21,0.00
2012-8-24,78,68,60,39,31,-100,41,27,15,0.00,40.00,19,6,30,0.00
2012-8-25,76,62,48,34,20,-100,45,24,10,0.00,40.00,20,-12,33,0.00
2012-8-26,78,68,59,27,16,-100,29,14,10,0.00,40.00,18,-6,26,0.00
2012-8-27,80,71,61,42,33,18,41,25,15,0.00,40.00,21,13,32,0.00
2012-8-28,81,71,66,46,39,-100,42,32,22,0.00,40.00,26,8,39,0.00
2012-8-29,83,72,68,42,36,-100,36,28,17,0.00,40.00,22,-1,32,0.00
2012-8-30,77,67,58,48,37,-100,67,36,16,0.00,40.00,29,4,39,0.00
2012-8-31,76,64,54,52,44,38,79,49,25,0.00,40.00,15,6,24,0.04
2012-9-1,75,63,50,49,40,-100,83,47,26,0.00,40.00,31,-9,44,0.00
2012-9-2,72,62,52,45,38,-100,77,45,24,0.00,40.00,26,-1,34,0.00
2012-9-3,72,64,56,41,30,-100,56,31,14,0.00,40.00,26,8,39,0.00
2012-9-4,75,66,56,32,23,16,34,21,11,0.00,40.00,27,17,44,0.00
2012-9-5,73,59,46,26,14,-100,38,19,10,0.00,40.00,29,-16,45,0.00
2012-9-6,75,64,54,30,18,-100,40,18,13,0.00,40.00,24,1,36,0.00
2012-9-7,63,53,45,42,34,27,84,50,26,0.00,40.00,13,7,22,0.00
2012-9-8,68,56,46,29,19,-100,48,27,10,0.00,40.00,17,0,22,0.00
2012-9-9,77,64,52,24,18,-100,28,18,12,0.00,40.00,18,-6,28,0.00
2012-9-10,78,67,62,38,27,-100,40,23,17,0.00,40.00,24,3,38,0.00
2012-9-11,71,58,51,49,38,-100,83,51,29,0.00,40.00,26,-3,34,0.06
2012-9-12,59,50,45,46,41,-100,99,75,44,0.00,40.00,13,-1,20,0.00
2012-9-13,65,53,41,37,24,14,65,34,15,0.00,40.00,15,6,18,0.00
2012-9-14,72,58,46,29,16,-100,41,22,11,0.00,40.00,14,-17,16,0.00
2012-9-15,72,64,55,17,11,-100,21,13,8,0.00,40.00,22,7,35,0.00
2012-9-16,70,62,48,29,16,8,46,18,12,0.00,40.00,30,14,50,0.00
2012-9-17,60,50,41,34,28,-100,68,45,24,0.00,40.00,16,-6,24,0.00
2012-9-18,67,57,43,27,24,20,45,29,19,0.00,40.00,21,14,31,0.00
2012-9-19,69,60,53,26,21,-100,30,23,17,0.00,40.00,22,-2,31,0.00
2012-9-20,68,59,51,24,19,-100,30,22,16,0.00,40.00,19,-4,29,0.00
2012-9-21,68,58,51,27,22,-100,33,25,17,0.00,40.00,15,0,26,0.00
2012-9-22,72,59,47,27,21,-100,41,25,14,0.00,40.00,9,4,15,0.00
2012-9-23,73,64,56,33,19,-100,36,18,13,0.00,40.00,20,5,28,0.00
2012-9-24,65,57,50,44,36,-100,76,48,28,0.00,40.00,23,6,35,0.00
2012-9-25,56,50,45,46,40,35,99,70,53,0.00,40.00,18,8,23,0.15
2012-9-26,53,46,44,46,40,-100,97,82,67,0.00,40.00,12,-16,18,0.03
2012-9-27,57,48,42,45,40,36,93,73,47,0.00,40.00,12,7,21,0.04
2012-9-28,62,53,44,42,36,29,78,55,29,0.00,40.00,12,6,16,0.00
2012-9-29,64,55,49,41,32,26,66,43,26,0.00,40.00,24,13,37,0.03
2012-9-30,63,55,46,36,32,26,61,43,24,0.00,40.00,17,10,29,0.00
2012-10-1,60,51,40,40,32,24,87,52,26,0.00,40.00,19,6,27,0.01
2012-10-2,68,60,53,26,23,20,34,25,16,0.00,40.00,27,21,41,0.00
2012-10-3,64,50,26,29,22,6,87,40,11,0.00,40.00,34,22,50,0.00
2012-10-4,43,30,20,24,22,18,94,72,45,0.00,40.00,17,7,22,0.00
2012-10-5,38,29,22,25,23,20,94,79,50,0.00,40.00,15,7,23,0.00
2012-10-6,30,24,20,25,21,13,100,88,66,0.00,40.00,13,5,17,0.22
2012-10-7,44,34,22,16,8,2,68,36,18,0.00,40.00,28,16,40,0.00
2012-10-8,55,47,40,12,6,1,24,18,12,0.00,40.00,29,23,45,0.00
2012-10-9,51,44,34,29,16,1,79,37,14,0.00,40.00,23,13,34,0.00
2012-10-10,60,48,31,26,18,9,72,36,13,0.00,40.00,30,14,43,0.00
2012-10-11,62,53,41,39,30,24,76,43,28,0.00,40.00,29,12,40,0.00
2012-10-12,62,51,42,44,32,24,92,51,31,0.00,40.00,27,11,39,0.10
2012-10-13,51,43,36,40,34,28,89,72,52,0.00,40.00,30,20,44,0.00
2012-10-14,52,45,38,35,32,28,83,61,42,0.00,40.00,29,20,40,0.00
2012-10-15,60,52,47,30,26,19,51,36,22,0.00,40.00,35,25,50,0.00
2012-10-16,58,48,39,41,32,26,88,55,33,0.00,40.00,39,28,55,0.05
2012-10-17,39,33,26,27,14,4,91,47,22,0.00,40.00,35,26,54,0.01
2012-10-18,46,37,28,19,12,8,54,37,23,0.00,40.00,35,28,50,0.00
2012-10-19,56,49,43,23,20,18,43,33,25,0.00,40.00,34,28,50,0.00
2012-10-20,62,54,47,20,18,15,33,24,17,0.00,40.00,30,20,44,0.00
2012-10-21,63,52,38,33,19,13,80,29,15,0.00,40.00,18,9,27,0.00
2012-10-22,60,53,40,32,27,22,70,38,24,0.00,40.00,19,11,33,0.00
2012-10-23,53,42,29,37,28,24,86,60,35,0.00,40.00,33,17,47,0.02
2012-10-24,30,27,20,30,26,20,100,98,85,0.00,40.00,9,4,14,0.59
2012-10-25,31,20,13,27,19,12,100,95,74,0.00,40.00,9,4,11,0.15
2012-10-26,26,22,16,19,14,6,100,74,43,0.00,40.00,26,10,40,0.08
2012-10-27,33,29,23,27,21,11,89,73,54,0.00,40.00,30,23,42,0.14
2012-10-28,43,38,30,33,30,23,87,72,64,0.00,40.00,39,29,54,0.02
2012-10-29,52,46,40,34,32,30,75,56,44,0.00,40.00,37,26,49,0.00
2012-10-30,53,48,43,32,27,22,61,46,31,0.00,40.00,32,20,41,0.00
2012-10-31,57,49,44,25,23,19,46,36,25,0.00,40.00,24,15,35,0.00
2012-11-1,57,50,43,23,18,12,41,28,17,0.00,40.00,24,12,34,0.00
2012-11-2,47,41,34,26,21,13,63,45,25,0.00,40.00,24,15,35,0.00
2012-11-3,48,41,33,19,16,10,53,37,24,0.00,40.00,23,15,32,0.00
2012-11-4,47,42,37,27,23,14,66,47,33,0.00,40.00,31,19,45,0.00
2012-11-5,49,44,38,30,28,25,67,52,41,0.00,40.00,37,24,50,0.00
2012-11-6,55,48,42,30,26,22,59,44,28,0.00,40.00,29,20,40,0.00
2012-11-7,58,52,46,22,17,11,35,25,15,0.00,40.00,30,18,43,0.00
2012-11-8,59,49,38,21,17,11,50,29,18,0.00,40.00,24,9,32,0.00
2012-11-9,55,46,38,33,22,12,77,40,26,0.00,40.00,32,11,50,0.03
2012-11-10,41,26,16,32,20,10,100,79,52,0.00,40.00,34,17,50,0.20
2012-11-11,15,13,11,11,8,4,91,81,71,0.00,40.00,40,25,56,0.17
2012-11-12,32,24,11,10,3,-2,76,43,23,0.00,40.00,47,28,64,0.00
2012-11-13,33,29,25,22,16,-2,76,61,27,0.00,40.00,37,23,49,0.00
2012-11-14,41,34,29,30,20,-100,100,61,36,0.00,40.00,34,22,47,0.45
2012-11-15,38,31,23,29,23,13,100,75,37,0.00,40.00,25,8,34,0.11
2012-11-16,49,40,32,30,19,11,69,43,26,0.00,40.00,29,10,43,0.00
2012-11-17,45,39,33,34,29,27,92,69,51,0.00,40.00,27,11,43,0.00
2012-11-18,45,39,33,32,28,26,96,65,48,0.00,40.00,30,15,45,0.07
2012-11-19,44,39,34,32,26,23,89,61,45,0.00,40.00,34,17,46,0.00
2012-11-20,51,44,39,25,20,14,57,40,27,0.00,40.00,34,17,46,0.00
2012-11-21,54,46,42,16,12,9,34,25,17,0.00,40.00,29,17,45,0.00
2012-11-22,42,33,27,28,13,1,76,45,25,0.00,40.00,34,24,50,0.00
2012-11-23,46,38,28,13,5,-10,39,25,15,0.00,40.00,30,20,44,0.00
2012-11-24,49,44,41,14,12,7,31,27,19,0.00,40.00,43,33,63,0.00
2012-11-25,46,38,31,26,15,6,72,43,23,0.00,40.00,39,27,57,0.01
2012-11-26,35,28,20,24,15,-4,100,63,19,0.00,40.00,32,17,45,0.03
2012-11-27,42,39,35,11,3,-7,32,23,14,0.00,40.00,41,27,61,0.00
2012-11-28,47,41,38,12,9,5,32,26,22,0.00,40.00,31,21,44,0.00
2012-11-29,45,41,39,22,20,11,51,43,26,0.00,40.00,39,24,55,0.00
2012-11-30,48,43,38,26,23,21,59,46,35,0.00,40.00,27,15,42,0.00
2012-12-1,45,42,39,30,26,18,68,55,38,0.00,40.00,42,28,57,0.00
2012-12-2,53,44,33,32,19,13,71,38,21,0.00,40.00,53,17,68,0.01
2012-12-3,41,31,26,33,10,-4,92,46,22,0.00,40.00,46,28,62,0.00
2012-12-4,43,36,27,24,7,-11,57,31,13,0.00,40.00,34,22,50,0.00
2012-12-5,48,42,37,30,25,18,75,53,31,0.00,40.00,40,27,57,0.01
2012-12-6,38,34,32,29,21,-100,75,62,45,0.00,40.00,37,22,49,0.00
2012-12-7,32,27,24,24,16,10,74,61,51,0.00,40.00,34,23,48,0.00
2012-12-8,26,19,9,21,10,-7,98,70,40,0.00,40.00,33,21,50,0.58
2012-12-9,10,7,3,4,0,-5,92,74,55,0.00,40.00,49,14,68,0.01
2012-12-10,19,14,9,15,8,0,97,76,62,0.00,40.00,49,26,72,0.12
2012-12-11,28,21,12,17,13,6,85,72,58,0.00,40.00,48,29,66,0.03
2012-12-12,36,32,26,17,14,9,64,48,34,0.00,40.00,37,24,54,0.00
2012-12-13,40,34,27,16,11,9,48,38,31,0.00,40.00,30,16,42,0.00
2012-12-14,42,34,27,18,12,7,59,40,24,0.00,40.00,26,9,35,0.00
2012-12-15,32,27,20,27,22,16,97,80,59,0.00,40.00,23,12,35,0.30
2012-12-16,23,20,18,19,15,11,96,82,66,0.00,40.00,40,25,58,0.61
2012-12-17,32,25,20,26,19,12,99,79,63,0.00,40.00,37,27,54,0.70
2012-12-18,21,17,12,16,8,-1,94,68,42,0.00,40.00,28,15,42,0.08
2012-12-19,15,8,6,14,4,-4,97,82,54,0.00,40.00,40,13,54,0.20
2012-12-20,32,22,7,4,-2,-5,69,36,22,0.00,40.00,39,29,53,0.00
2012-12-21,41,35,32,0,-3,-8,24,19,14,0.00,40.00,33,23,46,0.00
2012-12-22,38,33,26,8,-5,-14,37,20,11,0.00,40.00,31,14,45,0.00
2012-12-23,35,26,22,21,13,-10,94,62,14,0.00,40.00,30,22,45,0.31
2012-12-24,29,24,10,25,20,8,100,85,58,0.00,40.00,30,14,44,0.52
2012-12-25,15,7,0,14,4,-3,96,87,61,0.00,40.00,13,5,16,0.02
2012-12-26,23,16,9,17,9,-2,98,75,45,0.00,40.00,12,4,17,0.08
2012-12-27,16,12,6,14,8,3,93,81,70,0.00,40.00,24,16,34,0.02
2012-12-28,14,12,11,9,7,2,85,77,64,0.00,40.00,35,21,49,0.03
2012-12-29,25,15,6,6,-1,-14,73,49,18,0.00,40.00,32,7,42,0.00
2012-12-30,27,20,13,14,4,-11,83,53,22,0.00,40.00,37,16,48,0.00
2012-12-31,18,11,5,12,7,1,96,84,65,0.00,40.00,19,8,26,0.00
2013-1-1,17,12,6,9,4,-1,86,68,59,0.00,40.00,32,20,42,0.01